Location: The Rolnick Observatory
(41.1711°N, 73.3275°W)
Time: 15:58:56
(UTC-05:00)

Daily predictions for brighter satellites

Satellite Brightness Start Highest point End
(mag) Time Altitude Azimuth Time Altitude Azimuth Time Altitude Azimuth
Cosmos 2142 Rocket 4.5 16:47:29 10° S 16:53:38 78° E 16:59:47 10° N
CENTAUR R/B 4.4 16:51:03 10° NNW 16:55:40 17° NNE 17:00:32 10° ENE
IRAS Rocket 4.2 16:52:48 10° SSE 16:58:12 63° ENE 17:03:37 10° N
YAOGAN 1 3.6 16:54:46 10° ESE 16:58:14 24° ENE 17:01:42 10° NNE
CSL-04 Debris 4.3 16:53:38 10° SSE 16:58:53 55° ENE 17:04:09 10° N
Cosmos 1898 Rocket 3.9 16:56:06 10° SSW 17:01:16 67° WNW 17:06:31 10° NNE
SJ-12 4.1 16:57:51 10° S 17:01:59 80° WSW 17:06:07 10° NNW
ALOS 3.7 16:59:16 10° E 17:02:04 16° ENE 17:04:51 10° NNE
Ariane Rocket 3.1 16:58:09 10° SSE 17:03:05 57° ENE 17:08:03 10° N
Cosmos 2279 Rocket 4.0 16:59:58 10° S 17:06:09 67° E 17:12:22 10° NNE
USA 116 4.3 17:04:18 10° NE 17:07:00 24° E 17:09:35 10° SSE
Hubble Space Telescope 3.3 17:06:21 10° SSW 17:08:32 14° S 17:10:44 10° SSE
SJ-7 4.3 17:05:24 10° SSE 17:09:23 70° ENE 17:13:22 10° N
IDEFIX/ARIANE 42P 4.5 17:06:59 10° SSW 17:11:40 34° W 17:16:22 10° NNW
Meteor 1-19 Rocket 4.5 17:06:39 10° SSE 17:12:04 50° E 17:17:37 10° NNE
COSMO-SKYMED 1 3.8 17:09:12 10° NE 17:12:41 23° E 17:16:09 10° SSE
Cosmos 1125 Rocket 4.4 17:08:36 10° SSE 17:13:05 29° E 17:17:35 10° NE
Cosmos 389 Rocket 2.4 17:10:30 10° N 17:13:59 64° E 17:17:24 10° SSE
Cosmos 1937 Rocket 3.8 17:09:14 10° SSW 17:14:24 71° WNW 17:19:33 10° NNE
BREEZE-M DEB (TANK) 4.3 17:13:50 10° NW 17:16:12 26° NNE 17:20:00 12° E
CZ-2C R/B 4.0 17:11:30 10° SSW 17:16:24 42° W 17:21:19 10° NNW
USA 238 DEB 3.9 17:10:50 10° NNW 17:17:48 54° NE 17:24:48 10° SE
USA 238 3.9 17:10:57 10° NNW 17:17:53 53° NE 17:24:53 10° SE
CSL-04 Rocket 3.7 17:13:20 10° SSE 17:18:44 89° WSW 17:24:16 10° NNW
Meteor 1-28 Rocket 3.2 17:17:02 10° NNE 17:20:46 63° E 17:24:29 10° S
Cosmos 1975 Rocket 3.5 17:16:48 10° SSW 17:21:14 66° W 17:25:42 10° N
Cosmos 2298 Rocket 4.4 17:15:58 10° SSW 17:21:14 66° WNW 17:26:32 10° NNE
SJ 16-02 2.2 17:19:47 10° SSE 17:23:34 29° E 17:26:43 13° NE
USA 161 4.3 17:23:33 10° NNW 17:25:40 19° WNW 17:27:52 10° WSW
Abrixas rocket 3.2 17:23:15 10° W 17:26:18 36° NNW 17:28:27 17° NE
METEOR-M 4.3 17:21:26 10° SE 17:26:31 47° ENE 17:31:37 10° N
Cosmos 1697 Rocket 3.9 17:22:17 10° SSE 17:26:33 23° E 17:29:26 15° ENE
Cosmos 1743 2.6 17:23:13 10° N 17:27:07 79° E 17:31:00 10° S
ISS -3.7 17:24:41 10° NW 17:27:56 53° NNE 17:30:36 14° ESE
DELTA 2 R/B (1) 3.7 17:27:26 10° WSW 17:32:59 73° S 17:37:24 16° E
Cosmos 2082 4.0 17:28:51 10° NNW 17:34:13 44° ENE 17:39:35 10° SE
Cosmos 372 Rocket 4.3 17:34:11 10° S 17:39:09 47° ESE 17:43:21 14° NE
PSLV R/B 3.5 17:39:16 10° WSW 17:42:21 53° SSE 17:43:43 28° E
Landsat 4 3.6 17:43:47 11° NNE 17:47:26 68° ESE 17:51:13 10° S
Cosmos 2227 Rocket 2.1 17:42:04 10° NNW 17:47:44 72° ENE 17:53:22 10° SSE
NOSS 3-2 (A) 4.1 17:40:41 10° NNW 17:47:58 52° NE 17:55:53 10° ESE
Cosmos 1536 Rocket 3.4 17:45:02 10° S 17:49:23 76° E 17:53:44 10° N
IRS-1A Rocket 4.3 17:44:59 10° SSE 17:50:36 87° WSW 17:56:11 10° NNW
Cosmos 1025 Rocket 3.9 17:47:36 10° SSE 17:51:14 27° E 17:51:25 27° E
Atlas Centaur 2 3.8 17:48:23 10° WSW 17:52:16 21° SSW 17:55:34 10° SE
Meteor 1-23 Rocket 4.4 17:47:21 10° SSE 17:52:55 52° E 17:58:26 10° NNE
NOSS 3-2 (C) 4.3 17:47:03 10° NNW 17:54:10 45° NE 18:01:16 12° ESE
Cosmos 1271 Rocket 3.8 17:51:58 10° NNW 17:55:37 46° W 17:59:18 10° S
Cosmos 724 4.2 17:53:10 10° NNW 17:58:55 63° NE 18:04:41 10° SE
Meteor 2-9 Rocket 4.1 17:53:36 10° N 17:59:09 88° E 18:04:32 10° S
ERS-2 2.0 17:56:48 10° SSE 18:00:25 65° ENE 18:04:04 10° N
ATLAS 2AS CENTAUR R/B 3.5 17:52:52 10° SW 18:00:33 60° NW 18:08:06 12° NNE
SKYMED 2 3.4 17:56:48 11° NNE 18:00:58 79° ESE 18:05:17 10° S
MTI 3.9 18:04:09 23° N 18:06:00 72° WNW 18:09:13 10° SSW
ATLAS 3B R/B 2.6 17:59:27 10° NW 18:06:08 84° WSW 18:12:38 10° SSE
Cosmos 1980 Rocket 3.0 18:01:45 10° SSE 18:06:29 28° ESE 18:06:35 28° E
Cosmos 2266 Rocket 3.9 18:01:11 10° N 18:07:17 90° W 18:13:27 10° S
MONITOR-E 4.1 18:08:06 10° S 18:11:08 78° WSW 18:14:11 10° NNW
DMSP B5D1-3 4.5 18:09:14 21° NNE 18:12:39 61° ESE 18:17:41 10° S
Cosmos 158 Rocket 4.2 18:08:22 10° NNW 18:13:27 69° WSW 18:18:22 10° S
Cosmos 2297 Rocket 2.2 18:09:03 10° NNW 18:14:44 82° WSW 18:20:23 10° SSE
SPOT 3 Rocket 3.5 18:15:19 10° SSE 18:20:30 90° NE 18:25:42 10° NNW
NOSS 3-4 (A) 3.5 18:15:40 10° SSW 18:21:43 58° ESE 18:23:50 39° ENE
NOSS 3-4 (C) 3.5 18:15:46 10° SSW 18:21:48 57° ESE 18:23:53 40° ENE
CZ-4 R/B 3.7 18:20:47 10° SSW 18:23:56 24° W 18:27:10 10° NW
Meteor 2-4 Rocket 4.5 18:24:35 10° SSW 18:29:51 49° WNW 18:35:04 10° N
Cosmos 1656 3.8 18:25:15 10° SSW 18:30:49 70° WNW 18:33:56 27° NNE
Thor Agena Rocket 4.1 18:35:10 40° SE 18:35:10 40° SE 18:39:03 10° S
YAOGAN 1 4.5 18:30:23 10° SSW 18:34:11 30° W 18:38:02 10° NW
STPSAT 2 (USA 217) 4.5 18:32:05 10° NNW 18:36:38 88° ENE 18:37:10 70° SSE
ALOS 2.9 18:34:27 10° S 18:39:02 56° W 18:43:38 10° NNW
Cosmos 1244 Rocket 4.3 18:33:07 10° N 18:39:17 73° E 18:45:25 10° SSE
Okean 2 3.6 18:38:41 10° SSW 18:42:23 67° SW 18:42:23 67° SW
Cosmos 2360 4.4 18:42:14 10° S 18:46:58 52° SE 18:46:58 52° SE
CENTAUR R/B 3.4 18:41:05 10° NNW 18:48:32 45° NE 18:48:46 45° NE
COSMO-SKYMED 1 4.3 18:45:23 12° N 18:48:51 31° WNW 18:52:39 10° SW
Hubble Space Telescope 3.5 18:48:13 10° SSW 18:48:56 10° SSW 18:49:41 10° S
Cosmos 1553 Rocket 4.0 18:53:44 10° S 18:59:34 68° SE 18:59:34 68° SE
SJ 16-02 3.4 18:58:30 10° WSW 19:02:08 25° WNW 19:03:47 20° NNW
Cosmos 1417 Rocket 4.3 18:56:46 10° S 19:02:54 86° E 19:03:20 78° NNE
ISS -0.8 19:01:52 10° W 19:03:20 16° WSW 19:03:20 16° WSW
Gbstr 26 Del rocket 4.3 18:57:40 10° WSW 19:05:38 76° NNW 19:06:47 64° NNE
SL-24 R/B - RUBIN 2 4.3 19:03:36 10° SSW 19:09:20 75° SW 19:09:20 75° SW
Cosmos 1697 Rocket 3.4 19:04:38 10° SW 19:10:07 51° WNW 19:11:13 44° NNW
DELTA 2 R/B (1) 4.2 19:13:47 10° W 19:18:10 53° WSW 19:18:10 53° WSW
Cosmos 1980 Rocket 3.7 19:44:55 10° SW 19:48:25 32° WSW 19:48:25 32° WSW
CENTAUR R/B 4.4 20:31:47 10° NW 20:35:59 33° WNW 20:35:59 33° WNW
